www.pogodaiklimat.ru

Погода и климат >> Архив погоды >> Южная Африка >> Дурбан


ПОГОДА в Дурбане

  • Прогноз погоды в Дурбане
  • Монитор погоды в Дурбане

АРХИВ ПОГОДЫ в Дурбане

Время (UTC), дата Ветер
(напр.,м/с)
 
Видим.   Явления Облачность Т
(С)
Тd
(С)
f
(%)
Тe
(С)
Тes
(С)
Комфортность P
(гПа)
Po
(гПа)
Тmin
(С)
Tmax
(С)
R
(мм)
R24
(мм)
S
(см)
12 11.09 Ю 3 н/о н/о +26.4 +17.3 57 +30 +30 душно 1011.5 1000.5 +15.3 +27.4
15 11.09 ЮЗ 3 н/о н/о +21.0 +17.8 82 +26 +26 душно 1012.3 1001.1 +21.0 +27.4
18 11.09 ЮЗ 2 н/о н/о +18.3 +16.3 88 +20 +20 1014.1 1002.8 +18.3 +27.4
21 11.09 З 2 н/о н/о +18.1 +16.4 90 +19 +19 1014.5 1003.2 +17.5 +27.4
00 12.09 З 3 н/о н/о +18.5 +16.1 86 +20 +20 1013.8 1002.5 +17.5 +27.4
03 12.09 З 3 н/о н/о +18.0 +15.6 86 +18 +18 1012.9 1001.6 +17.5 +27.4
06 12.09 С 3 н/о н/о +21.1 +16.1 73 +24 +24 комфорт 1013.4 1002.2 +17.5
09 12.09 СВ 6 н/о н/о +23.2 +17.5 70 +29 +29 душно 1010.8 999.7 +17.5 +25.4
12 12.09 СВ 5 н/о н/о +23.5 +18.4 73 +28 +28 душно 1007.2 996.2 +17.5 +25.4
15 12.09 СВ 2 н/о н/о +21.4 +18.6 84 +26 +26 душно 1006.7 995.6 +21.4 +25.4
18 12.09 С 2 н/о н/о +20.2 +18.3 89 +24 +24 комфорт 1007.2 996.1 +20.2 +25.4
21 12.09 Ю 7 н/о н/о +20.1 +17.5 85 +23 +23 комфорт 1010.8 999.6 +19.6 +25.4
00 13.09 Ю 7 н/о н/о +20.2 +14.8 71 +22 +22 комфорт 1013.0 1001.8 +19.6 +25.4
03 13.09 ЮЗ 5 н/о н/о +19.2 +12.7 66 +20 +20 1014.6 1003.3 +19.2 +25.4
06 13.09 ЮЗ 4 н/о н/о +22.5 +14.7 61 +26 +26 жарко 1015.3 1004.2 +18.9
09 13.09 Ю 7 н/о н/о +21.4 +16.4 73 +25 +25 комфорт 1016.9 1005.7 +18.9 +23.8
12 13.09 Ю 7 н/о н/о +19.7 +15.8 78 +21 +21 комфорт 1015.6 1004.3 +18.9 +23.9
15 13.09 Ю 7 н/о н/о +17.2 +13.3 78 +16 +16 1017.1 1005.7 +16.8 +23.9
18 13.09 ЮЗ 3 н/о н/о +16.8 +10.9 68 +17 +17 1019.8 1008.4 +16.6 +23.9
21 13.09 З 3 н/о н/о +15.9 +11.1 73 +16 +16 1021.1 1009.6 +15.8 +23.9
06 14.09 ЮЗ 4 н/о н/о +17.5 +8.2 54 +17 +17 1023.1 1011.7 +15.8
09 14.09 Ю 3 н/о н/о +19.8 +7.9 46 +21 +21 комфорт 1022.8 1011.5 +15.8 +20.6
15 14.09 Ю 2 н/о н/о +18.0 +9.4 57 +19 +19 1021.4 1010.0 +18.0 +20.7
18 14.09 З 2 н/о н/о +17.1 +9.3 60 +17 +17 1023.0 1011.6 +17.1 +20.7 0.2
21 14.09 З 3 н/о н/о +16.4 +9.8 65 +16 +16 1022.5 1011.0 +16.4 +20.7
00 15.09 СЗ 2 н/о н/о +16.6 +11.1 70 +17 +17 1021.0 1009.6 +16.4 +20.7
03 15.09 С 2 н/о н/о +16.6 +12.2 75 +17 +17 1021.0 1009.6 +16.4 +20.7
06 15.09 С 3 н/о н/о +18.5 +13.2 71 +19 +19 1021.8 1010.4 +16.4 0.2
09 15.09 СВ 5 н/о н/о +21.0 +15.4 70 +24 +24 комфорт 1020.5 1009.2 +16.4 +21.3
12 15.09 СВ 5 н/о н/о +22.4 +17.1 72 +27 +27 душно 1018.0 1006.8 +16.4 +22.9
15 15.09 СВ 3 н/о н/о +20.9 +17.3 80 +25 +25 комфорт 1017.9 1006.7 +20.8 +22.9
18 15.09 С 3 н/о н/о +20.5 +17.3 82 +24 +24 комфорт 1019.8 1008.5 +20.4 +22.9
21 15.09 С 3 н/о н/о +19.0 +16.8 87 +21 +21 комфорт 1019.5 1008.2 +19.0 +22.9
00 16.09 С 3 н/о н/о +17.7 +16.0 90 +18 +18 1018.6 1007.2 +17.7 +22.9
06 16.09 С 2 н/о н/о +20.7 +16.3 76 +25 +25 комфорт 1018.5 1007.3 +16.1
09 16.09 СВ 4 н/о н/о +24.6 +17.9 66 +29 +29 душно 1017.7 1006.6 +16.1 +24.7
12 16.09 СВ 4 н/о н/о +26.8 +19.0 62 +32 +32 очень
душно
1015.4 1004.4 +16.1 +27.1
15 16.09 С 5 н/о н/о +22.2 +19.2 83 +28 +28 душно 1016.0 1004.8 +22.2 +27.1
18 16.09 С 3 н/о н/о +21.3 +19.2 88 +26 +26 душно 1017.8 1006.6 +21.3 +27.1
21 16.09 С 3 н/о н/о +20.9 +18.8 88 +26 +26 душно 1017.8 1006.6 +20.9 +27.1
00 17.09 С 2 н/о н/о +20.8 +19.3 91 +26 +26 душно 1017.3 1006.1 +20.7 +27.1
03 17.09 ЮЗ 2 н/о н/о +20.1 +18.6 91 +24 +24 комфорт 1017.8 1006.5 +20.1 +27.1
06 17.09 Ю 3 н/о н/о +21.8 +18.0 79 +26 +26 душно 1018.8 1007.6 +20.1
09 17.09 Ю 6 н/о н/о +26.3 +18.8 63 +31 +31 душно 1018.4 1007.4 +20.1 +26.7
12 17.09 Ю 4 н/о н/о +25.6 +19.1 67 +31 +31 очень
душно
1017.0 1006.0 +20.1 +27.2
15 17.09 Ю 2 н/о н/о +22.4 +18.6 79 +28 +28 душно 1017.1 1005.9 +22.4 +27.2
18 17.09 ЮЗ 2 н/о н/о +19.7 +18.2 91 +23 +23 комфорт 1017.9 1006.6 +19.7 +27.2
21 17.09 ЮЗ 2 н/о н/о +19.1 +17.9 93 +22 +22 комфорт 1018.1 1006.8 +19.0 +27.2
00 18.09 ЮЗ 2 н/о н/о +19.4 +17.9 91 +22 +22 комфорт 1017.7 1006.4 +18.6 +27.2
03 18.09 ЮЗ 4 н/о н/о +20.1 +17.5 85 +23 +23 комфорт 1018.0 1006.7 +18.6 +27.2
06 18.09 ЮЗ 3 н/о н/о +22.4 +17.1 72 +27 +27 душно 1020.1 1008.9 +18.6
09 18.09 Ю 5 н/о н/о +25.7 +18.7 65 +31 +31 очень
душно
1020.4 1009.3 +18.6 +27.1

 

Местоположение метеостанции Дурбан (Южная Африка): широта -29.96 долгота 30.95 высота над уровнем моря 14 м.

В архиве по умолчанию представлена погода в Дурбане за последнюю неделю. Архивные данные за месяц целиком и за предыдущие месяцы, начиная с января 2011 года, Вы можете получить, выбрав интересующий диапазон дат из раскрывающегося списка и нажав кнопку "Ввод!".


*Определитесь, кто Вы:
робот инопланетянин человек

Внимание! Время в таблицах - всемирное. Для получения местного времени необходимо прибавить поправку, которая равна 2 ч.

Смотрите также архив погоды в соседних городах и на ближайших метеорологических станциях:

Погода в Аэропорту Вирджиния (Южная Африка) (24 км)
Погода в Маунт Эджком (Южная Африка) (30 км)
Погода в Аэропорту Кинг Шака (Южная Африка) (43 км)
Погода в Пеннингтоне (Южная Африка) (54 км)
Погода в Питермарицбург аэропорту (Южная Африка) (63 км)
Погода в Питермарицбурге (Южная Африка) (65 км)
Погода в Цедаре (Южная Африка) (80 км)
Погода в Иксопо (Южная Африка) (87 км)
Погода в Мандини (Южная Африка) (100 км)
Погода в Грейтауне (Южная Африка) (104 км)

Пояснения к столбцам:

Ветер - указаны скорость ветра в м/с - средняя за 10 мин, порывы в срок и между сроками (в фигурных скобках) и направление, откуда дует ветер: С - северный, СВ - северо-восточный, В - восточный, ЮВ - юго-восточный, Ю - южный, ЮЗ - юго-западный, З - западный, СЗ - северо-западный.
Видимость - горизонтальная дальность видимости в метрах или километрах. При видимости от 1 до 10 км при отсутствии осадков обычно наблюдается дымка, при ухудшении видимости до 1 км и менее - туман. В сухую погоду видимость может ухудшаться дымом, пылью или мглою.
Явления - указаны атмосферные явления, наблюдавшиеся в срок или в последний час перед сроком; фигурными скобками обозначены явления, наблюдавшиеся между сроками (за 1-3 часа до срока); квадратными скобками обозначены град или гололедные отложения с указанием их диаметра в мм.
Облачность - указаны через наклонную черту общая и нижняя облачность в баллах и высота нижней границы облаков в метрах; квадратными скобками обозначены формы облаков: Ci - перистые, Cs - перисто-слоистые, Cc - перисто-кучевые, Ac - высококучевые, As - высокослоистые, Sc - слоисто-кучевые, Ns - слоисто-дождевые, Cu - кучевые, Cb - кучево-дождевые. Подробнее классификацию облаков см. в Атласе облаков (PDF).
T - Температура воздуха - температура, измеренная на высоте 2 м над землей.
Td - Температура точки росы - температура, при понижении до которой содержащийся в воздухе водяной пар достигнет насыщения.
f - Относительная влажность воздуха - влажноcть воздуха, измеренная на высоте 2 м над землей.
Te - Эффективная температура - температура, которую ощущает одетый по сезону человек в тени. Характеристика душности погоды. При расчете учитывается влияние влажности воздуха и скорости ветра на теплоощущения человека.
Tes - Эффективная температура на солнце - температура, которую ощущает человек, с поправкой на солнечный нагрев. Характеристика знойности погоды. Зависит от высоты солнца над горизонтом, облачности и скорости ветра. Ночью, в пасмурную погоду, а также при ветре 12 м/с и более поправка равна нулю.
P - Атмосферное давление - приведенное к уровню моря атмосферное давление.
Po - Атмосферное давление - измеренное на уровне метеостанции атмосферное давление.
Tmin - Минимальная температура - минимум температуры воздуха на высоте 2 м над землей.
Tmax - Максимальная температура - максимум температуры воздуха на высоте 2 м над землей.
R - Количество осадков - Количество выпавших осадков за период времени, мм. При наведении курсора мыши на число - период времени, за который выпало указанное количество осадков.
R24 - Количество осадков - Количество выпавших осадков за 24 часа, мм.
S - Снежный покров - Высота снежного покрова, см. При наведении курсора мыши на число - состояние снежного покрова и степень покрытия местности в баллах.